Northeast Gulf: Past 24 Hour Conditions

 

La Scie

03:30 AM NDT 22 August 2014
This table is a summary of hourly weather conditions for the past 24 hours.
Date / Time
(NDT)
Wind(knots) Conditions Visibility(km) Pressure(kPa) Air tempC) Relative humidity(%) Dew pointC)
22 August 2014
3:30 11 gust 20 N/A N/A 101.8 12 100 12
2:30 8 gust 18 N/A N/A 101.7 12 100 12
1:30 8 N/A N/A 101.8 12 100 12
0:30 9 gust 19 N/A N/A 101.7 12 100 12
21 August 2014
23:30 9 gust 16 N/A N/A 101.7 13 100 13
22:30 8 gust 17 N/A N/A 101.7 13 100 13
21:30 10 gust 19 N/A N/A 101.7 13 100 13
20:30 11 gust 22 N/A N/A 101.7 13 100 13
19:30 9 gust 19 N/A N/A 101.6 13 100 13
18:30 11 gust 18 N/A N/A 101.6 13 100 13
17:30 13 gust 21 N/A N/A 101.5 13 100 13
16:30 12 gust 21 N/A N/A 101.5 13 100 13
15:30 9 gust 18 N/A N/A 101.4 13 100 13
14:30 8 gust 18 N/A N/A 101.4 13 100 13
13:30 8 gust 17 N/A N/A 101.4 13 100 13
12:30 11 gust 21 N/A N/A 101.4 13 100 13
11:30 9 gust 19 N/A N/A 101.4 13 100 13
10:30 S 9 gust 17 N/A N/A 101.4 13 100 13
9:30 S 10 gust 18 N/A N/A 101.3 13 100 13
8:30 S 10 gust 17 N/A N/A 101.3 13 100 13
7:30 SSE 9 gust 21 N/A N/A 101.2 13 100 13
6:30 ESE 10 gust 23 N/A N/A 101.2 13 100 13
5:30 ESE 11 gust 18 N/A N/A 101.1 13 100 13
4:30 SSE 12 gust 20 N/A N/A 101.1 13 100 13
3:30 SSE 11 gust 23 N/A N/A 101.0 14 100 14
 
Map of Atlantic - Newfoundland marine weather areas Southwestern Grand Banks - 44138 Banquereau - 44139 Tail of the Bank - 44140 Nickerson Bank - 44251 Northeast Burgeo Bank - 44255 Blanc-Sablon Airport Cap Whittle Chevery Natashquan Airport Heath Point Miscou Island Grand Étang Ingonish Beach North Mountain St.Paul Island J.A. Douglas McCurdy Sydney Airport Charlottetown Airport East Point North Cape Argentia Bonavista Burgeo Cape Race Corner Brook Daniel's Harbour Englee Ferolle Point La Scie Port aux Basques Rocky Harbour Sagona Island St. Anthony Airport St. John's Int'l Airport St. Lawrence Stephenville Airport Twillingate Winterland Wreckhouse Cartwright Airport Mary's Harbour Grates Cove Pool's Island Marticot Island Long Pond Îles de la Madeleine Airport
Legend: buoyBuoy land stationLand Station